Location: Betra
(48.4113°N, 8.6634°E)
Time: 21:18:17
(UTC+00:00)

ALOS - Pass Details

Date: 23 May 2024
Orbit: 673 x 676 km, 98.0° (Epoch: 16 June)

Event Time Altitude Azimuth Distance (km) Brightness Sun altitude
Rises 01:21:25 0° 24° (NNE) 3,038 7.4 -16.0°
Reaches altitude 10° 01:24:00 10° 37° (NE) 2,118 6.1 -15.8°
Maximum altitude 01:27:51 25° 93° (E) 1,342 4.1 -15.4°
Drops below altitude 10° 01:31:40 10° 150° (SSE) 2,102 4.5 -15.1°
Enters shadow 01:32:29 - 155° (SSE) 2,379 4.7 -15.0°
